GFSSE_850_dewp_330.txt.gz
Dewpoint
13 13 12 12 11 9 7 5 5 6 7 5 4 4 6 6 3 3 0 -4 -5 -2 -0 5 9 10 11 11 9 6 4 4 4 5 5 5 6 6 6 8 11 10 5
13 12 11 12 11 9 5 3 3 6 6 5 4 4 2 2 0 -1 -4 -5 -5 1 6 8 9 9 8 8 10 8 6 5 6 8 11 9 8 7 7 8 10 9 10
14 14 12 11 10 8 4 2 2 5 5 6 6 3 1 0 -1 -2 -4 -4 -4 -0 7 8 8 8 7 5 7 9 7 5 6 10 12 13 11 11 11 10 10 10 9
14 14 13 11 10 6 2 1 1 4 5 4 5 1 -1 -1 -2 -3 -3 -2 -1 1 5 8 8 8 7 5 8 9 8 7 10 13 13 12 12 11 10 9 10 10 10
13 14 13 11 9 3 1 0 0 4 5 6 3 -0 -1 -1 -2 -2 -2 -1 -1 -1 -0 1 4 7 6 5 6 10 10 9 12 13 13 12 12 11 10 11 11 10 9
13 13 11 11 7 2 1 -0 -1 0 3 4 1 -0 -0 -1 -1 -1 -0 1 1 -0 -1 -1 -1 0 1 1 7 11 10 12 12 13 11 11 11 11 11 11 11 11 11
12 14 11 10 4 3 2 1 0 0 1 1 0 1 1 1 1 0 -0 -1 -1 -2 -2 -3 -3 -2 -1 1 6 10 11 11 12 11 11 11 10 10 9 10 10 10 9
14 14 11 8 5 4 4 3 1 -0 1 1 1 1 1 1 1 1 -1 -1 -1 -0 0 1 2 4 5 6 7 8 9 9 11 11 11 10 9 8 7 7 7 6 4
14 14 13 10 6 6 5 5 2 0 -0 0 1 1 1 0 -0 -0 -1 1 3 5 7 7 8 8 10 10 10 11 12 12 11 11 10 9 8 6 4 4 -0 -2 -4
13 13 13 12 12 10 6 4 3 1 -0 -0 -0 -0 -1 -1 0 2 4 5 6 8 10 11 12 12 12 12 12 12 12 11 11 10 8 7 6 3 5 4 5 5 4
13 13 13 13 13 12 9 3 2 1 0 -0 -0 0 2 11 11 12 9 9 10 12 12 12 12 12 12 12 12 12 11 10 10 8 7 4 5 5 4 4 4 4 4
13 12 12 12 13 12 11 5 7 2 7 10 11 9 12 12 12 12 9 11 12 11 11 12 12 11 10 10 11 10 10 9 8 8 7 5 5 5 5 4 4 3 3
12 11 9 8 11 12 12 11 11 11 12 12 12 12 12 12 11 11 11 12 12 11 11 12 11 11 11 10 10 9 9 8 7 7 6 5 5 6 5 5 4 3 3
12 11 8 8 9 12 12 11 11 11 12 12 12 11 11 11 11 13 13 12 12 12 11 12 11 10 9 9 8 7 6 6 5 5 5 5 4 5 5 4 3 3 3
12 11 6 8 11 12 12 12 12 12 12 11 12 11 12 11 11 12 12 12 12 12 11 10 11 9 8 6 6 4 3 2 3 4 5 4 1 1 2 -2 0 2 3
12 10 6 9 12 12 12 12 10 10 7 10 10 9 11 11 11 12 12 12 12 12 11 11 10 8 6 5 3 1 1 2 3 4 -0 -3 -14 -13 -13 -14 -18 -9 2
12 11 7 10 12 12 11 7 9 8 8 9 9 10 11 11 11 12 11 11 11 11 10 11 8 7 5 2 -7 -6 -3 -11 -6 2 2 3 -3 -10 -12 -12 -15 -24 -13
12 12 9 12 12 11 11 8 8 8 10 10 10 10 10 11 11 11 11 11 10 10 11 9 7 6 3 -1 -1 -1 -1 -4 1 2 1 1 2 1 -10 -12 -14 -25 -25
12 10 11 12 12 11 8 8 10 10 11 10 10 10 10 9 9 9 8 9 8 10 10 9 7 4 -0 -1 -1 0 0 0 1 1 1 -1 -5 -4 -2 -9 -17 -23 -26
10 10 12 12 12 8 9 11 11 11 10 10 9 3 -3 -2 -2 -1 -1 2 8 9 9 8 6 1 0 -0 -1 -1 -4 -6 1 1 1 1 -4 -7 -7 -10 -4 -7 -23
12 11 12 12 9 9 10 11 11 11 10 9 2 -7 -6 -6 -7 -6 -5 -4 6 8 8 7 5 -0 -5 -6 -7 0 -3 -3 1 0 0 0 -1 -4 -8 -8 -8 -7 -4
11 12 12 11 9 10 11 10 9 9 9 6 -7 -8 -9 -10 -10 -8 -4 2 7 8 7 6 5 -2 -9 -6 -0 -0 0 0 1 0 0 0 -2 -1 -2 -7 -15 -18 -11
11 10 12 11 10 11 10 10 9 8 9 -5 -8 -10 -13 -18 -19 -14 -5 8 8 7 7 6 5 -1 -6 -1 -0 3 1 -0 1 1 0 -0 -2 -1 -2 -3 -14 -18 -18
8 11 12 11 10 11 11 11 8 9 4 -2 -9 -11 -10 -19 -25 -20 -9 -0 5 8 7 7 6 2 0 1 1 -1 2 3 1 1 0 -0 -1 -2 -8 -3 -6 -11 -19
12 12 12 11 11 11 11 10 9 9 2 -7 -8 -0 -1 -7 -18 -22 -14 -3 5 8 8 7 5 4 2 3 2 2 2 3 3 -0 -1 -1 -1 -2 -3 -4 -12 -9 -12
12 12 12 11 12 11 11 10 9 10 0 -7 -6 2 1 -6 -20 -20 -16 -10 -2 5 6 7 6 6 4 4 3 2 2 2 1 -2 -2 -2 -3 -2 -2 -6 -8 -11 -11

GFSSE_850_dewp_336.txt.gz
Dewpoint
12 9 9 8 6 4 5 8 10 9 9 7 6 8 5 3 3 -4 -4 -1 5 9 10 10 9 7 5 4 5 8 11 12 12 9 8 9 9 10 10 11 10 10 10
11 10 9 8 6 3 5 7 8 8 6 4 6 5 3 1 -3 -3 1 6 8 9 8 7 6 8 7 6 8 10 11 12 12 12 11 10 10 10 11 11 11 11 11
9 10 10 9 6 3 4 6 6 5 4 3 3 1 0 -3 -4 -0 4 7 8 8 8 7 5 6 9 7 8 11 12 13 13 12 11 12 12 11 11 10 11 11 11
10 10 10 9 6 3 4 6 6 6 5 4 1 -0 -1 -3 -3 -0 3 6 8 8 8 7 6 6 9 8 10 11 11 12 12 12 12 12 11 10 9 10 10 10 10
12 11 10 9 6 3 3 4 6 6 6 2 -0 -1 -2 -3 -2 -0 2 3 4 5 5 6 6 6 9 10 10 11 11 12 11 11 11 11 10 9 8 8 9 9 9
15 11 10 9 5 1 1 4 6 6 5 0 -1 -2 -3 -3 -2 -1 -0 -0 -1 -1 -1 0 2 6 9 11 11 11 11 10 11 10 10 9 8 8 7 6 5 5 0
15 12 10 9 3 0 0 3 5 6 4 -0 -1 -2 -2 -1 0 1 1 -1 -3 -3 -3 -2 -0 5 9 11 11 11 10 10 10 10 8 8 8 6 6 0 -8 -10 -10
14 12 10 7 2 0 0 1 4 6 2 0 0 -0 1 2 1 0 -1 -1 -1 -1 0 2 4 6 9 11 11 10 11 11 10 8 7 7 6 6 5 5 1 -4 -7
14 11 9 6 2 1 0 0 2 3 1 1 1 1 0 -0 -1 -2 -2 0 3 4 6 6 8 9 10 11 12 11 10 9 8 7 4 2 6 5 5 5 7 6 6
13 9 9 4 2 2 1 1 1 2 2 2 2 1 1 -0 -0 1 2 4 7 10 11 11 12 12 12 12 11 10 9 8 7 6 2 6 6 5 5 5 6 5 3
12 8 9 4 4 3 3 2 1 2 2 2 1 0 -0 0 4 7 7 9 11 12 12 11 11 10 10 9 8 9 8 7 6 3 6 5 5 5 5 4 4 4 4
11 12 11 12 11 7 5 2 1 1 0 0 0 11 12 11 11 7 10 12 12 11 11 10 9 9 8 8 7 7 7 6 5 5 6 6 6 6 5 4 4 3 4
13 13 12 12 12 12 9 4 1 1 5 7 7 12 12 10 12 9 10 12 12 11 10 10 10 10 9 8 8 7 6 6 4 6 6 4 3 4 4 5 4 3 4
13 13 13 12 12 11 8 9 6 9 10 11 8 12 12 10 11 10 11 12 11 11 11 10 10 10 9 8 7 7 6 5 2 2 3 -8 -18 -12 4 4 4 3 3
12 12 13 13 11 11 9 10 9 10 10 11 10 11 11 11 10 12 12 12 12 11 11 11 10 8 7 4 7 6 5 3 -2 -3 -1 -13 -17 -19 -5 3 3 3 3
12 12 13 13 11 12 10 11 10 10 11 11 11 9 9 10 11 11 12 12 12 11 11 10 8 7 5 2 4 4 4 1 -8 -9 -10 -5 -8 -16 -21 -26 -22 -1 2
12 12 12 13 11 12 10 10 10 10 11 11 10 10 11 11 11 11 11 12 12 12 10 8 7 5 3 0 -0 3 1 2 3 3 3 2 -1 -5 -13 -20 -18 -26 -21
12 12 11 13 11 10 12 10 10 9 9 10 11 10 11 12 12 11 11 12 12 11 9 8 6 4 1 -2 1 3 3 3 2 3 3 1 -1 -2 -8 -7 -10 -14 -21
11 12 10 12 11 10 11 9 11 9 10 10 10 10 12 12 12 11 10 10 10 10 8 8 5 1 0 1 1 2 2 2 2 -2 2 0 -2 -2 -5 -4 -6 -8 -12
11 12 10 11 12 10 10 11 11 9 11 11 11 11 11 11 11 11 11 10 8 8 9 7 4 1 0 1 2 2 1 -0 2 2 1 -1 -3 -3 -2 -3 -4 -6 -11
12 12 11 12 11 11 11 11 11 11 11 10 10 10 10 9 10 9 10 10 9 8 8 7 4 1 0 -0 -4 -1 2 2 2 1 1 0 -0 -2 -7 -10 -9 -2 -5
12 12 12 11 11 11 11 10 10 10 10 9 8 7 3 -2 -0 6 8 8 9 8 9 8 4 1 -2 -3 -1 0 2 2 1 1 1 1 -1 -1 -2 -6 -12 -11 -6
13 12 11 12 11 11 11 10 10 9 8 7 7 -1 -4 -3 -2 6 8 9 9 9 9 7 3 1 -6 1 2 4 3 3 2 2 1 0 1 -0 -1 -1 -8 -9 -9
12 12 11 12 11 11 10 10 10 8 7 6 0 -4 -6 -4 3 6 8 9 9 9 7 5 4 -1 -6 1 2 4 5 3 3 2 2 0 -2 -1 -4 -2 -4 -6 -8
13 12 11 12 11 10 11 10 9 7 7 4 -0 -5 -11 -8 -2 7 8 8 9 8 5 6 4 2 2 3 3 3 3 2 1 3 2 1 -0 -1 -2 -4 -5 -5 -5
12 13 11 12 10 10 11 10 9 8 5 1 -1 -7 -12 -12 -3 1 8 8 8 8 6 6 5 4 3 4 3 4 4 4 3 -1 1 0 1 -1 -1 -3 -7 -6 -6

GFSSE_850_dewp_339.txt.gz
Dewpoint
9 8 6 4 2 4 8 9 9 8 7 5 6 4 3 -3 -7 -5 0 7 9 8 7 5 4 4 4 5 10 12 11 10 11 10 11 11 11 11 11 11 11 11 11
9 9 6 4 1 1 5 6 7 5 5 6 4 2 -1 -5 -6 -2 6 7 7 6 6 8 6 5 5 9 11 12 12 12 11 10 11 11 11 11 11 11 11 11 11
9 9 7 4 0 0 4 6 5 3 4 4 1 -1 -4 -5 -2 1 4 7 7 6 5 6 8 6 8 10 11 12 13 12 11 11 11 11 11 10 10 10 10 10 10
9 9 7 4 0 0 3 4 4 3 3 1 -1 -3 -5 -5 -1 4 6 6 7 7 6 6 9 8 10 11 11 11 11 11 11 11 10 9 9 9 8 8 7 6 6
9 9 7 5 0 -0 1 3 5 4 2 -1 -2 -3 -4 -4 -0 3 5 6 7 6 6 6 9 10 10 11 11 10 11 9 9 9 9 7 6 7 3 -1 0 -1 -3
9 9 8 5 -0 -1 0 3 5 4 1 -1 -2 -2 -2 -1 1 1 1 0 -0 1 3 5 8 10 11 10 10 10 9 7 9 8 8 6 -3 1 -9 -12 -18 -20 -21
10 9 8 4 -1 -1 1 3 4 4 0 -1 -1 -2 -1 -1 0 0 -1 -2 -3 -2 -1 4 8 10 11 11 10 9 10 9 8 7 5 -3 3 6 4 -4 -7 -7 -11
10 9 8 3 -0 -1 1 1 3 3 0 -1 -2 -2 -1 -0 -0 -2 -3 -3 -2 -1 1 4 8 10 11 11 10 10 10 8 7 5 -3 6 7 7 7 6 2 -0 -4
10 10 7 2 0 -0 -0 -0 2 1 0 -0 -1 -0 0 -1 -2 -2 -1 -0 2 3 5 7 9 10 11 11 10 9 8 7 6 -4 3 5 6 6 7 4 5 5 -1
12 10 7 2 1 -0 0 0 1 0 0 0 1 0 -0 -1 -0 1 3 5 7 9 10 11 11 11 11 10 9 8 8 7 1 2 7 7 6 5 5 5 4 6 5
11 9 7 2 1 1 0 0 0 0 1 1 1 0 -1 -0 1 4 6 10 11 11 11 10 10 9 7 6 6 5 4 3 1 5 6 5 5 6 5 4 5 6 4
11 9 6 2 1 2 1 0 -0 0 1 0 -0 3 5 5 6 5 10 12 12 12 10 9 8 8 7 7 7 6 3 -1 4 5 5 5 5 5 5 4 4 5 5
11 9 5 2 3 2 1 -0 -1 -1 -1 5 9 12 11 10 6 6 11 11 11 10 10 9 9 8 8 8 6 5 4 -2 -3 -2 -7 0 5 5 5 5 4 4 5
11 9 6 5 5 4 2 -0 -1 -2 -2 10 11 12 12 12 11 8 11 11 10 10 10 10 10 9 9 7 6 5 5 2 -4 -6 -15 -17 -1 4 5 4 4 4 3
11 11 11 11 9 8 2 -0 3 7 6 7 11 13 12 11 10 10 11 11 10 11 11 10 10 9 8 7 7 5 5 -1 -2 -12 -11 -16 -21 -21 1 3 4 3 3
12 12 12 12 11 10 8 9 10 9 10 11 10 11 11 11 10 12 12 12 12 11 11 10 9 7 7 6 5 5 1 -8 -6 -4 -1 -6 -12 -18 -20 -21 -19 -2 2
13 12 12 12 11 10 10 10 9 11 11 11 11 10 9 9 11 11 12 12 12 11 11 8 7 4 4 5 5 2 -0 1 2 2 -0 -5 -7 -10 -10 -16 -19 -25 -9
12 12 12 12 11 10 12 10 10 11 11 11 9 8 9 11 10 10 12 12 12 11 8 8 7 3 -1 1 0 -0 0 0 1 1 -1 -6 -8 -9 -10 -14 -13 -18 -24
12 12 11 11 12 11 11 10 10 10 10 9 10 9 11 11 11 11 11 12 12 10 8 7 5 -0 -8 -4 -0 3 2 2 2 2 1 -4 -7 -8 -11 -14 -17 -14 -19
13 12 12 11 12 11 11 10 9 9 11 9 9 9 9 12 11 11 10 10 10 8 8 7 4 -2 -5 -2 0 1 1 0 -1 -0 -1 -3 -3 -8 -12 -15 -18 -15 -16
12 12 11 11 11 10 11 9 9 9 10 11 10 8 9 10 12 11 11 9 9 8 7 7 3 -0 -1 -2 -1 1 2 2 1 1 1 -1 -1 -3 -6 -10 -15 -18 -13
13 11 10 11 10 10 10 9 10 10 10 11 10 9 9 10 10 10 10 8 8 8 7 7 4 -0 -1 -2 -4 -1 1 1 2 1 1 -0 -1 -1 -5 -6 -12 -15 -16
12 11 10 11 11 10 10 11 10 10 10 10 9 8 8 6 9 9 9 9 8 8 8 7 5 0 -5 -1 3 4 2 2 2 2 1 0 -1 -1 -5 -6 -12 -15 -13
12 11 10 11 10 10 10 11 9 10 9 9 8 7 1 -3 8 6 6 10 9 8 8 8 5 -0 -7 2 2 3 5 3 3 2 1 1 0 -2 -4 -6 -13 -15 -14
12 11 11 11 10 11 10 10 9 10 9 8 6 2 -5 -1 4 6 8 9 9 8 8 8 4 -1 -1 1 2 3 3 4 4 3 2 1 -0 -1 -3 -7 -13 -15 -14
12 12 12 11 11 11 11 10 10 10 8 7 5 -6 -7 -0 4 7 9 9 8 9 8 5 4 -2 1 3 3 2 1 2 2 0 1 1 -1 -1 -1 -4 -5 -12 -14

GFSSE_850_dewp_345.txt.gz
Dewpoint
9 9 11 11 11 10 9 7 6 5 6 5 -3 -6 -4 -1 1 2 2 2 2 2 4 6 7 9 6 6 9 10 10 10 11 12 11 12 12 11 11 11 10 11 11
7 8 9 10 10 9 7 6 6 7 7 3 -6 -5 0 4 5 4 4 3 3 4 4 6 9 11 11 10 10 9 10 10 10 9 9 10 11 11 11 10 10 10 10
7 7 8 9 9 6 5 4 4 4 3 -2 -6 -2 5 8 8 8 6 5 4 3 4 6 7 11 12 11 10 9 10 10 9 9 8 8 9 10 8 7 6 5 4
6 6 6 8 5 4 4 2 3 2 0 -5 -5 1 6 7 7 6 6 7 6 5 4 7 9 10 10 10 9 10 10 9 8 8 6 4 7 8 7 3 4 3 4
6 5 3 3 2 3 1 1 2 -0 -3 -5 -2 2 4 6 6 5 5 5 7 6 8 8 9 9 10 10 9 8 9 8 7 5 -2 3 6 7 -0 -3 -0 3 3
6 4 1 1 1 1 0 1 0 -2 -4 -5 -3 1 3 5 5 5 5 5 6 8 9 8 9 9 10 9 9 9 8 7 5 -1 -2 7 8 6 2 -1 -3 -4 -8
6 4 1 1 0 1 1 1 -1 -3 -5 -4 -2 0 2 3 4 4 3 4 6 9 8 9 9 10 10 9 9 9 7 6 2 -3 6 4 7 8 7 3 -2 -4 -5
5 3 1 1 0 1 2 1 -1 -3 -4 -4 -3 -1 0 -0 -1 -1 -2 1 3 6 8 9 10 11 10 10 9 8 6 2 -4 1 4 7 7 6 7 3 3 0 -2
6 3 1 1 2 2 3 1 -1 -3 -4 -3 -2 -2 -2 -1 -3 -4 -4 -2 2 6 9 10 11 10 10 9 8 7 4 -5 -5 3 7 7 7 6 6 7 6 4 -0
6 3 0 1 2 3 3 1 -2 -3 -4 -3 -2 -1 -1 -3 -3 -2 -1 2 5 9 10 11 10 9 8 6 5 5 -2 -4 -2 3 6 6 6 6 6 6 6 6 5
6 4 1 0 2 2 2 1 -2 -3 -3 -2 -0 -0 -2 -3 -1 1 3 6 9 11 11 10 9 7 4 3 3 1 -5 -2 2 4 6 6 6 5 7 5 5 5 5
7 5 2 -0 1 2 2 0 -1 -1 -2 -0 -1 -1 -2 -2 2 5 8 10 11 11 11 9 6 5 0 -5 -1 -4 -6 -2 2 4 6 6 6 6 5 5 4 6 4
7 6 3 -0 1 1 1 -0 -0 -1 -0 -0 -1 -1 -2 -0 4 9 11 11 11 9 8 7 6 6 3 -1 -4 -8 -12 -7 -3 4 6 6 5 6 5 5 5 5 4
8 6 3 1 1 0 -0 -1 -1 -1 -0 -0 -0 -1 0 2 7 10 11 11 10 8 8 7 8 7 5 4 -2 -8 -16 -15 -9 -4 2 5 6 6 5 5 5 5 4
9 7 4 1 0 -0 -1 -1 -1 -0 -0 -1 -1 2 3 3 8 11 11 11 9 8 8 8 8 8 7 5 2 -6 -15 -17 -18 -15 -16 -15 -11 1 4 5 4 4 4
10 8 5 1 -0 -0 -1 -1 -1 -0 -0 1 7 9 6 8 8 11 11 10 9 9 9 9 8 8 7 5 4 -4 -10 -6 -9 -14 -17 -19 -21 -21 -16 2 4 5 4
11 9 6 2 0 0 -1 -1 -1 -0 -0 7 10 10 10 11 9 11 10 10 10 10 9 9 8 9 7 6 1 -7 -6 -3 -8 -12 -14 -15 -18 -21 -20 -23 1 4 4
12 10 7 3 1 1 0 -1 -1 1 7 10 11 12 11 11 10 11 10 10 10 10 9 8 8 8 7 5 -2 -2 -0 -2 -3 -8 -13 -14 -16 -19 -19 -19 -24 -15 2
12 10 7 5 3 2 1 -1 -1 6 9 11 12 12 11 11 11 12 11 10 10 11 10 9 7 6 5 4 -2 -0 -1 -1 -3 -6 -9 -10 -13 -15 -17 -19 -18 -24 -15
12 11 8 5 4 3 1 -1 -1 5 9 10 11 11 10 10 11 12 11 11 12 11 10 8 6 5 4 -1 -1 -0 -1 -1 -1 -1 -4 -6 -8 -10 -14 -17 -18 -22 -22
11 11 10 8 8 5 1 2 6 5 9 11 11 11 10 10 11 11 12 11 11 11 10 7 5 2 1 -1 -1 1 1 1 1 0 0 -3 -5 -8 -10 -15 -17 -18 -21
10 11 10 10 10 6 2 7 9 10 11 11 12 11 10 10 11 10 11 12 11 11 9 7 5 -0 -2 -1 -4 -0 2 1 1 1 1 0 -1 -4 -9 -13 -15 -17 -20
10 8 7 9 11 9 7 9 10 10 11 12 12 10 10 11 10 10 11 11 11 11 9 7 4 -8 -3 -1 -4 -4 1 2 1 1 1 1 0 -2 -5 -10 -14 -15 -17
9 6 6 7 11 10 10 10 11 10 12 12 11 10 10 10 10 10 10 10 10 11 8 7 4 -3 -9 -5 -3 -3 1 1 1 1 1 1 1 -0 -2 -6 -10 -13 -16
5 4 4 5 11 12 10 11 11 11 12 11 10 10 10 10 10 10 11 11 10 9 8 7 6 2 -6 -7 -5 4 5 4 1 1 1 0 1 0 -2 -3 -4 -8 -12
4 3 5 11 8 12 11 11 11 11 11 11 10 11 11 10 11 11 11 10 8 7 7 6 5 5 0 -5 2 4 4 3 2 3 2 1 1 -0 -1 -2 -3 -4 -8

GFSSE_850_dewp_348.txt.gz
Dewpoint
11 12 11 11 11 8 6 3 3 3 2 1 0 -3 -2 1 3 2 2 1 2 3 3 9 11 10 11 10 10 10 11 10 10 11 11 11 11 11 11 10 10 10 10
9 12 12 11 10 9 6 5 4 4 2 -3 -5 -3 0 1 1 2 1 1 3 9 10 11 12 10 10 9 9 10 10 9 9 9 9 10 10 10 9 7 9 8 6
8 12 12 12 10 8 6 5 5 6 -0 -5 -3 0 2 3 3 3 2 1 8 9 10 11 12 11 10 8 10 10 10 9 8 8 7 6 8 7 3 3 3 3 2
6 10 12 12 10 8 6 6 6 5 -3 -4 1 4 6 5 5 4 3 3 8 8 9 11 11 10 9 7 8 8 8 8 7 4 -2 -5 6 6 3 -1 -2 -4 -1
7 9 11 11 9 7 5 5 4 1 -5 -2 5 6 6 6 5 6 6 5 5 8 9 10 8 9 8 9 9 8 7 6 4 -5 -5 3 2 6 -3 -8 -9 -8 -9
7 9 11 11 8 6 4 3 1 -2 -5 1 5 5 5 5 4 4 5 6 9 6 9 8 8 9 9 8 9 8 7 4 -5 -8 3 6 7 6 0 -6 -5 -7 -9
6 8 10 9 6 4 2 2 -1 -4 -4 0 3 4 4 4 4 4 4 7 8 7 7 8 9 9 9 9 8 7 5 -0 -6 -1 4 5 7 4 2 -4 -6 -8 -9
5 9 9 8 5 2 2 1 -2 -4 -4 -2 0 2 3 3 3 4 6 10 9 7 8 9 10 10 9 9 7 5 1 -3 -3 7 5 7 7 7 6 -2 -5 -3 -4
6 8 8 7 4 3 2 -0 -2 -4 -4 -2 -1 0 2 2 0 1 8 10 6 7 9 10 10 10 8 8 6 3 -4 -4 -2 7 7 7 7 6 7 3 1 1 1
6 6 6 6 4 3 2 -0 -3 -4 -4 -4 -2 -1 -1 -2 -3 0 5 4 7 10 10 10 9 8 6 4 4 -1 -6 -3 0 6 6 5 7 6 7 6 6 4 4
8 5 6 6 5 4 2 0 -2 -3 -4 -3 -2 -2 -2 -3 -2 -0 2 6 8 11 10 9 8 5 3 2 1 -4 -3 -4 -0 6 7 6 6 6 6 6 6 5 5
11 9 6 5 4 4 3 0 -1 -2 -2 -2 -2 -1 -3 -3 -1 4 7 9 11 11 10 8 4 -6 -1 -3 -3 -4 -4 -1 2 5 6 6 6 6 6 6 4 5 5
12 11 9 5 4 4 3 0 -1 -2 -2 -1 -1 -2 -3 -2 3 7 10 11 11 10 9 6 4 -3 -6 -7 -10 -8 -4 0 3 6 4 6 6 6 6 6 4 3 4
12 9 6 5 5 4 3 0 -1 -2 -1 -1 -1 -2 -2 1 5 10 11 11 10 8 7 7 6 2 -3 -8 -14 -12 -6 -4 -2 -0 6 6 6 5 6 5 4 4 3
9 7 4 4 5 4 2 -0 -1 -1 -1 -1 -2 -1 -2 0 7 10 11 10 9 8 8 8 7 5 3 -5 -11 -16 -14 -11 -10 -10 -6 -5 4 5 5 5 5 5 3
9 7 5 3 5 5 3 -1 -1 -1 -1 -1 -1 -1 -1 1 7 11 12 11 9 8 8 8 8 7 4 1 -9 -12 -13 -14 -16 -17 -16 -18 -15 -2 5 5 5 4 4
10 9 7 4 4 5 3 -0 -1 -1 0 -0 -1 -0 2 3 8 12 12 10 8 9 9 9 8 7 6 2 -7 -7 -6 -10 -14 -15 -15 -19 -19 -19 -13 1 4 4 4
11 11 9 5 4 3 3 -0 -0 0 1 -0 -0 7 6 7 9 11 11 9 9 9 9 9 9 8 6 1 -9 -2 -5 -6 -12 -14 -15 -17 -19 -17 -19 -22 -7 3 5
11 11 10 7 4 2 3 1 0 1 1 0 8 9 8 10 10 11 11 9 9 10 9 9 8 7 6 -1 -2 -0 -2 -4 -7 -8 -11 -12 -15 -17 -17 -17 -23 -9 3
12 12 11 9 5 3 4 2 2 2 2 3 10 11 11 11 11 12 11 10 10 10 9 8 8 7 5 -0 -0 0 -1 -2 -2 -5 -7 -8 -11 -14 -15 -16 -19 -21 -11
12 13 12 10 6 4 4 4 4 4 2 5 11 12 12 11 11 12 11 10 10 11 10 8 7 6 4 -1 -1 0 1 0 -0 -2 -3 -4 -6 -11 -13 -16 -16 -20 -19
10 12 12 10 9 5 6 5 5 3 3 7 11 12 12 11 11 12 11 10 10 11 11 8 7 5 3 -1 -4 -0 1 0 0 0 -0 -1 -2 -5 -9 -14 -15 -18 -20
11 11 10 11 10 8 6 7 6 4 3 8 10 11 11 11 11 12 12 11 10 11 10 9 7 4 1 -1 -4 -3 -1 -0 0 0 0 0 -0 -2 -6 -10 -14 -17 -19
13 10 9 11 10 10 7 7 6 2 2 6 9 11 11 11 11 12 11 11 11 11 9 9 7 5 -1 -7 -2 -3 -3 -4 -1 -1 0 0 0 -1 -3 -7 -9 -11 -16
12 11 9 10 10 9 5 5 4 2 5 6 10 12 11 10 10 11 11 12 11 11 10 9 7 4 -5 -8 -5 -2 2 3 0 -0 -0 -0 0 0 -2 -3 -5 -7 -12
11 12 11 10 10 9 8 7 6 3 6 10 11 11 11 10 10 11 11 11 11 11 10 10 7 4 -2 -6 -6 1 3 3 1 1 0 -1 -0 -0 -2 -3 -4 -4 -9

GFSSE_850_dewp_354.txt.gz
Dewpoint
13 14 10 10 8 8 11 12 12 12 12 7 3 3 3 6 10 5 -0 -1 3 10 10 12 11 10 10 10 9 9 9 9 8 8 9 10 9 8 7 6 8 8 6
13 12 10 10 7 7 10 11 11 11 12 6 1 1 4 8 4 1 -0 9 12 10 11 10 7 7 8 9 9 9 8 7 8 8 9 8 8 8 -1 -1 1 2 1
14 13 10 10 7 6 7 10 10 10 8 3 0 2 5 4 2 2 5 11 11 12 10 9 7 7 8 8 7 7 6 5 6 2 5 7 8 9 8 7 7 8 7
14 14 11 10 7 5 5 5 6 4 2 -1 -1 2 1 2 1 1 9 11 11 12 11 8 7 7 8 7 6 5 4 -0 -1 5 6 8 8 9 8 6 7 7 7
14 14 11 10 7 5 4 3 3 1 -2 -3 1 1 2 3 2 1 9 10 11 11 7 7 7 7 7 7 5 2 -4 2 7 6 7 8 8 7 5 6 6 5 5
14 14 10 10 8 5 5 4 2 -3 -3 -0 1 3 4 3 3 4 8 10 10 7 6 7 8 8 7 5 2 -4 4 7 6 7 8 8 9 7 2 5 6 4 5
14 14 11 10 8 6 5 5 1 -3 -0 3 4 5 5 9 8 6 7 8 7 5 7 8 8 8 7 3 -2 -4 6 7 7 7 7 8 7 7 5 4 -1 1 5
14 14 11 10 9 8 7 5 -0 -1 3 5 6 6 7 11 10 7 9 6 5 6 8 9 8 8 6 1 -5 1 7 7 7 7 7 8 8 7 5 0 -4 5 3
13 14 11 10 9 9 7 4 -1 2 6 7 6 6 7 10 9 8 9 5 6 8 9 9 8 7 3 -2 -4 1 6 7 7 6 7 7 7 7 6 4 0 1 0
13 13 14 13 11 9 7 3 1 5 7 6 6 6 6 9 10 10 10 7 8 10 9 8 7 4 2 -4 -1 3 6 7 6 7 7 7 7 6 6 4 0 -0 3
13 13 13 13 14 13 11 3 2 7 7 7 6 6 7 11 11 11 7 9 10 10 8 7 3 1 -2 -4 1 6 5 6 7 7 7 6 6 7 6 -0 3 3 3
13 14 13 13 13 12 11 5 10 9 10 11 11 10 10 11 11 11 10 10 10 9 7 -1 1 0 5 5 5 5 6 7 7 6 6 6 6 6 6 4 4 4 3
13 13 13 12 14 11 11 10 10 10 11 11 12 10 10 12 11 11 11 10 10 9 3 -3 5 5 5 5 6 6 6 6 6 6 6 6 6 6 6 5 2 2 2
14 13 12 12 12 9 10 11 10 11 10 10 11 11 7 10 10 11 10 10 9 9 6 5 5 5 6 6 6 6 6 5 6 6 6 6 5 6 6 6 4 2 2
13 13 13 12 10 6 6 10 8 7 5 10 10 10 5 10 10 12 10 10 10 7 6 5 3 4 6 5 5 5 5 5 5 5 5 5 5 5 5 6 3 4 2
13 13 12 12 9 6 7 4 4 0 1 9 10 5 2 10 10 11 10 10 9 8 7 5 4 4 4 5 5 4 4 4 4 4 5 4 4 4 4 3 4 4 3
13 13 12 13 10 8 10 7 4 1 0 4 10 2 1 8 10 10 10 10 9 8 8 6 4 3 3 3 3 2 2 2 2 3 3 4 2 -3 2 6 4 2 3
13 13 13 13 11 11 11 7 4 2 1 9 8 1 1 7 10 10 10 10 9 8 8 7 4 3 1 -0 -0 -0 -0 -1 -3 -1 0 0 1 1 -2 5 5 3 3
13 13 13 13 13 10 11 8 7 3 3 9 9 2 1 4 10 10 10 10 8 9 8 7 5 2 1 1 1 0 -0 -1 -1 -1 -3 -11 -10 -1 1 -2 -1 -1 3
13 13 12 11 12 11 12 11 7 4 7 10 6 5 1 4 8 10 10 10 8 9 8 8 6 4 2 1 1 1 1 1 0 -0 -4 -6 -14 -18 -2 1 1 -4 -2
13 13 13 12 12 12 11 10 8 6 10 10 8 6 1 2 9 11 11 11 9 9 9 8 7 6 3 2 2 2 2 2 1 1 -0 -2 -10 -11 -17 -18 -1 1 -4
13 13 13 12 12 11 9 11 10 10 10 10 10 5 2 2 9 9 11 11 11 9 9 9 8 6 4 2 2 1 2 1 1 1 1 1 -5 -5 -14 -18 -17 -5 0
12 12 13 13 12 11 10 9 10 11 10 10 10 10 8 5 10 11 11 11 11 9 9 9 8 6 6 3 3 1 1 -0 1 2 0 2 -3 -1 -11 -17 -19 -19 -16
11 12 12 13 12 12 11 10 9 7 9 9 9 10 9 9 10 11 11 11 11 10 9 10 9 8 6 5 3 2 2 2 0 2 2 2 1 -0 -9 -11 -13 -16 -20
11 12 12 12 12 12 12 11 10 8 7 9 10 9 8 9 12 11 12 11 11 11 10 10 10 9 7 6 5 3 1 1 2 1 1 2 2 1 -1 -10 -9 -11 -17
7 11 12 12 12 12 12 11 11 9 9 8 9 9 10 6 9 11 12 11 11 11 11 10 10 10 8 7 5 3 3 2 3 3 2 2 1 1 1 -5 -8 -7 -9

GFSSE_850_dewp_357.txt.gz
Dewpoint
13 8 8 8 11 12 13 13 12 12 6 1 0 3 6 10 6 -0 0 8 9 11 13 13 11 10 9 9 9 9 8 8 8 8 7 5 7 5 4 7 7 9 7
14 8 8 8 8 12 12 12 12 12 8 3 3 3 8 6 0 2 10 11 11 11 10 7 8 9 9 8 8 7 7 7 5 7 4 6 6 2 3 5 4 3 4
15 9 9 8 7 10 12 12 12 12 8 2 2 5 7 2 6 11 12 12 12 9 8 7 7 7 7 7 6 5 5 4 4 7 8 8 8 9 8 8 4 8 8
14 10 9 8 6 8 11 12 12 12 6 2 4 6 4 6 6 11 12 12 11 10 7 6 7 7 6 5 3 -1 -1 5 6 7 8 9 8 9 8 8 6 8 7
14 14 9 8 6 6 8 10 10 9 4 1 5 3 3 2 7 10 11 12 11 6 6 6 6 6 4 2 -1 5 6 7 8 7 8 8 8 8 8 7 5 7 7
13 14 9 9 6 4 5 7 6 4 1 3 3 4 3 3 6 10 11 10 6 5 6 7 7 6 2 -1 4 7 7 7 7 7 9 8 8 8 5 6 7 6 4
13 14 10 9 6 4 4 4 3 -1 -0 2 4 6 6 5 6 9 10 9 5 6 8 8 7 5 -2 -2 5 7 7 7 7 7 8 8 8 8 6 7 4 1 3
14 14 10 9 7 5 4 3 -1 -1 1 3 7 9 8 7 6 8 9 7 6 7 9 8 7 2 -5 -1 5 6 6 6 7 7 8 7 7 8 7 3 2 3 -1
15 14 12 9 7 6 5 3 -1 1 4 6 9 9 10 10 8 10 8 7 7 8 9 7 6 0 -6 1 6 6 6 6 6 7 8 7 7 8 6 4 1 -3 1
14 14 13 12 8 7 6 2 1 3 6 9 9 9 10 10 10 10 8 7 8 9 8 7 3 -1 -5 5 7 7 6 7 7 8 7 7 7 8 7 4 1 -1 3
14 14 14 14 13 13 10 2 3 7 9 9 9 10 10 10 11 11 8 9 10 8 7 2 1 -5 -1 4 6 6 6 6 7 7 7 7 7 6 7 5 5 2 4
14 14 13 14 13 12 12 4 11 10 10 11 11 7 12 10 11 10 9 10 9 8 -1 0 -1 1 4 5 6 6 6 6 6 7 6 6 7 6 6 6 5 4 5
14 15 14 13 13 12 11 11 11 11 11 11 11 10 12 10 10 10 11 9 9 5 -2 3 5 5 5 5 5 6 6 7 6 7 6 6 6 6 5 6 5 5 4
15 14 14 13 13 11 11 10 10 9 10 11 11 11 11 10 10 10 10 9 9 8 7 6 5 6 6 6 6 6 6 6 6 7 5 5 6 6 5 4 5 4 5
14 14 14 13 12 12 11 10 9 9 10 10 10 11 12 11 10 10 10 9 9 8 6 5 6 6 6 6 5 5 5 6 6 6 5 6 5 6 6 4 5 3 2
14 13 14 13 12 12 12 12 12 11 11 10 10 11 10 11 10 10 10 9 9 8 6 4 5 5 5 5 5 4 4 5 5 6 6 6 3 4 4 4 4 2 2
13 14 13 14 12 13 11 12 11 9 10 9 9 10 8 11 10 10 10 10 9 8 6 5 4 5 5 4 5 5 4 4 4 5 5 5 0 2 3 4 -0 1 3
13 13 13 13 12 12 12 11 11 11 10 9 10 10 10 11 11 10 10 10 9 9 7 5 4 3 3 2 1 -0 1 2 3 3 3 2 3 3 3 2 -2 3 2
13 13 13 13 12 11 13 11 11 9 10 9 10 7 7 11 10 11 10 10 9 9 8 6 4 2 1 1 0 0 0 0 -0 0 1 0 1 3 2 -4 -5 -1 2
13 13 13 13 13 12 11 11 12 10 10 9 10 7 7 10 10 10 10 10 9 9 9 7 5 2 1 1 -0 1 0 0 0 0 -1 -1 -6 0 2 1 2 -9 -8
13 13 13 13 13 12 11 10 11 9 9 10 10 10 6 9 11 11 11 10 10 9 9 8 6 5 3 2 2 2 2 3 2 0 -1 -1 -3 -4 -10 0 1 2 -8
13 12 13 13 13 12 12 8 9 8 8 9 10 10 8 8 11 11 10 10 10 9 9 8 7 6 4 3 2 2 2 2 2 2 1 0 -2 -4 -8 -7 -1 1 2
13 13 13 12 13 12 12 11 9 10 8 10 10 10 9 9 11 10 10 10 11 9 9 8 7 6 5 4 2 2 2 1 2 2 2 2 -2 -1 -3 -11 -14 -9 -1
12 12 13 12 13 12 12 12 10 8 6 8 8 10 9 9 11 9 11 10 11 11 9 9 9 7 6 6 5 2 3 4 1 2 2 3 3 2 -5 -2 -7 -15 -13
8 13 12 13 13 12 12 12 11 8 8 8 8 10 9 9 9 9 11 11 11 11 11 9 9 9 7 7 6 4 4 3 2 1 2 2 3 2 2 -5 -1 -7 -14
3 10 12 12 12 12 12 12 11 10 8 8 10 9 10 10 9 9 11 11 11 11 11 11 9 10 9 8 7 6 5 3 3 3 2 3 2 2 2 2 -1 -1 -6

GFSSE_850_dewp_360.txt.gz
Dewpoint
10 7 10 10 11 12 12 12 9 2 0 3 4 6 9 1 -0 3 7 10 13 13 10 9 8 9 9 8 7 7 6 3 6 5 8 8 9 5 -2 1 4 6 6
10 7 9 10 11 12 12 12 11 4 1 3 5 9 4 0 5 9 9 11 11 8 6 7 8 7 7 6 6 5 4 9 7 7 9 10 9 4 -1 4 6 8 7
7 7 7 8 10 11 12 12 11 6 4 3 7 6 2 7 11 11 11 10 8 7 5 6 7 7 5 4 1 3 7 7 6 8 6 7 10 8 9 9 9 9 8
8 7 7 7 8 11 12 12 12 7 2 3 7 5 7 9 12 12 12 10 9 5 5 5 5 5 2 1 7 7 8 9 8 6 8 9 9 9 9 8 8 9 8
10 8 7 6 6 9 12 12 12 7 2 4 6 7 6 10 11 12 12 10 5 4 5 5 4 1 0 3 7 8 8 8 7 3 8 9 9 8 9 7 8 8 8
14 8 8 6 5 6 11 11 10 5 2 4 5 6 7 9 11 11 11 6 4 5 7 6 2 -1 -2 5 7 7 7 6 4 9 8 8 8 8 8 4 6 6 7
14 9 8 6 4 4 6 8 7 3 2 4 3 5 7 9 9 10 9 5 4 7 7 6 -0 -3 2 6 8 6 5 5 6 6 6 8 8 7 6 5 1 7 4
14 9 8 6 4 3 3 4 3 -0 3 4 5 6 6 7 8 9 7 5 5 8 7 5 -4 -4 1 3 6 7 7 7 5 7 7 7 7 8 7 2 6 6 7
14 9 8 6 5 4 3 2 -2 1 3 6 9 8 7 7 9 9 6 5 7 8 7 2 -5 -1 2 6 7 7 7 6 7 7 7 7 7 8 6 6 6 6 6
14 10 8 7 6 5 4 0 -1 2 5 8 9 10 9 9 10 9 6 7 8 7 6 -1 -7 2 4 6 7 7 7 6 7 7 7 6 7 7 6 3 6 6 4
14 11 11 8 6 6 3 1 1 4 6 9 10 9 9 10 10 8 7 8 8 6 -2 -4 -2 4 5 6 7 6 7 7 5 7 6 7 7 7 6 6 3 5 5
13 13 13 11 10 8 4 3 4 9 9 9 9 8 9 10 10 8 9 9 8 -2 -3 -6 1 5 6 6 6 5 6 6 6 6 6 6 7 7 5 6 5 5 5
13 13 13 12 12 11 8 8 9 10 10 9 7 11 11 11 10 6 9 8 5 -2 4 5 5 6 6 5 6 7 6 7 6 5 6 6 6 7 5 6 6 3 4
14 14 13 12 13 12 10 10 9 10 9 9 8 12 12 10 9 8 8 8 4 -0 6 6 6 6 6 6 7 6 5 4 5 4 5 6 6 5 6 6 6 3 2
13 13 14 12 12 12 10 11 10 12 11 9 9 12 12 10 9 10 9 9 8 6 6 6 6 7 6 6 6 6 6 6 6 4 5 5 6 6 6 6 5 3 1
14 14 14 12 12 12 10 11 10 10 11 9 9 11 11 9 9 9 9 8 8 7 6 5 6 5 6 6 5 5 5 6 5 2 3 3 4 4 5 5 4 2 -0
13 13 14 12 12 12 10 12 10 10 11 10 9 11 10 9 9 8 9 9 8 7 5 5 5 6 4 5 5 5 5 5 6 4 1 -2 2 4 4 -2 0 1 -0
13 14 14 13 11 11 12 11 10 10 10 11 10 10 10 10 10 8 9 9 8 7 5 4 5 5 4 4 4 3 4 4 4 5 3 3 2 -3 2 -4 -2 -2 -2
14 13 14 13 12 11 11 10 10 9 9 9 10 10 10 10 9 9 9 9 8 8 7 4 4 4 3 1 0 0 0 0 2 3 2 2 3 4 0 -12 -9 -7 -6
13 13 13 13 13 12 10 12 10 7 10 10 9 10 9 8 10 9 10 9 8 8 7 5 4 3 1 1 1 0 -0 -0 -0 -1 -5 -1 2 3 -0 -4 -2 -7 -13
12 14 13 14 13 12 11 12 11 9 9 9 9 9 8 9 10 9 9 9 9 9 8 6 4 2 1 0 0 1 1 1 0 0 -1 -2 -10 -1 3 2 2 0 -7
11 12 13 13 13 13 12 12 10 8 4 10 10 8 7 7 11 9 9 9 9 9 9 7 5 3 2 1 0 2 2 2 1 1 0 -1 -4 -5 -11 -7 1 2 1
13 11 12 13 13 13 12 12 11 10 8 7 9 8 5 4 8 9 10 9 10 9 9 8 7 5 3 2 2 -0 2 2 2 -0 1 1 -0 -4 -4 -11 -9 -1 2
12 12 12 13 13 13 13 12 11 8 8 7 7 10 8 6 6 8 10 10 10 10 9 9 7 6 5 4 3 3 3 4 2 2 2 1 2 -2 -1 -8 -16 -18 -10
9 12 11 12 13 13 13 12 12 10 7 6 9 8 5 3 6 6 10 10 10 10 10 9 8 7 6 6 4 1 3 4 2 3 2 2 2 0 0 -3 -9 -13 -16
8 11 9 11 12 12 12 12 12 12 8 8 8 9 8 8 7 4 9 9 8 10 10 10 10 9 8 7 7 6 3 2 0 0 3 3 2 2 1 0 -4 -12 -13

GFSSE_850_dewp_363.txt.gz
Dewpoint
10 10 10 11 11 11 9 4 -1 -3 0 4 8 1 -4 -2 3 8 12 13 11 10 7 7 7 6 6 6 4 2 5 8 9 9 8 7 7 7 4 5 9 9 9
7 10 9 11 11 11 11 6 1 -0 0 6 8 -0 -1 4 7 11 12 10 6 6 5 5 6 5 4 2 5 7 6 7 6 10 7 9 9 9 9 9 9 8 6
7 10 9 10 11 12 11 8 2 1 1 7 4 1 6 10 10 11 9 7 6 4 5 5 4 2 3 8 8 8 7 4 3 6 7 10 10 9 9 9 8 8 8
7 8 9 10 11 12 12 9 4 2 2 6 3 7 10 11 11 10 9 7 4 4 3 3 1 2 7 8 8 9 8 -0 -4 1 8 9 9 9 9 9 9 7 6
6 7 8 10 10 11 11 10 4 1 4 6 7 7 10 12 12 10 8 3 4 5 4 1 1 4 6 8 8 8 8 2 -5 2 2 8 9 6 4 0 6 8 8
6 7 7 9 11 11 11 10 4 1 4 6 7 7 10 11 11 10 5 2 6 6 4 -1 1 4 6 7 7 7 7 -6 -1 -6 7 8 9 8 6 7 7 8 7
7 7 7 7 9 11 11 8 3 1 5 5 6 7 9 9 10 8 4 3 7 6 2 -3 -1 4 7 6 6 3 -6 1 -2 5 8 7 9 8 7 4 6 6 6
7 7 7 7 8 10 9 6 2 1 4 4 5 6 7 9 8 5 3 5 8 5 -1 -7 -0 7 7 7 8 6 2 -0 4 6 5 6 7 8 7 6 6 4 5
8 7 7 6 8 8 7 4 0 3 3 4 4 5 5 7 8 4 3 7 7 5 -3 -8 3 6 7 7 7 7 5 2 4 6 6 7 7 8 7 7 4 6 6
8 7 6 5 6 7 5 2 0 2 4 6 6 6 6 8 9 4 4 8 7 3 -5 -4 6 7 7 7 7 7 3 3 5 6 5 7 7 8 5 6 4 6 4
9 8 6 5 5 4 3 2 3 3 6 8 9 8 7 7 8 5 6 7 4 -3 -6 0 5 7 7 6 6 5 0 3 4 6 6 7 6 7 4 6 3 5 5
10 8 6 5 5 4 1 3 4 5 7 9 9 8 7 6 5 6 7 7 -3 -6 -2 5 6 6 5 6 7 7 6 2 5 6 6 6 6 6 6 6 5 4 5
12 9 7 6 5 3 1 4 5 6 9 9 9 8 9 9 6 6 6 3 -7 -3 4 6 6 7 6 6 6 5 3 -2 5 4 5 6 6 6 5 4 5 3 4
12 11 9 8 7 4 2 5 6 8 9 9 9 10 9 9 8 3 6 -1 2 5 6 6 6 7 6 6 6 6 5 1 3 4 6 4 6 6 6 4 3 5 3
12 12 12 11 11 8 2 4 7 9 9 9 9 12 11 9 9 3 6 -1 5 6 6 6 6 6 6 7 6 5 0 -1 -1 1 6 5 6 6 6 6 4 5 3
13 13 12 12 12 10 5 5 7 7 8 8 8 12 12 10 9 7 5 7 6 7 6 6 6 6 6 6 6 5 3 2 -1 -1 1 4 5 5 5 5 4 3 4
13 13 12 12 12 11 9 8 9 10 9 9 8 10 11 9 8 7 7 8 7 7 6 4 4 4 6 5 5 5 5 4 3 -1 -2 -6 -2 -2 2 2 2 1 3
13 13 13 12 12 12 10 11 10 11 10 9 9 10 10 10 9 9 8 7 8 6 5 4 6 5 3 5 5 5 5 5 4 3 2 2 1 -1 -10 -5 -0 -3 -2
13 14 14 12 13 12 10 11 11 11 11 9 9 9 10 10 9 10 7 8 8 7 5 4 5 4 4 3 2 4 4 4 4 4 2 2 1 2 0 -14 -9 -10 -3
13 12 14 13 12 12 11 11 10 11 11 10 10 10 10 9 8 9 8 8 7 7 6 4 4 4 3 -1 -0 -0 -2 -0 4 3 2 2 1 1 1 -8 -5 -3 -13
12 12 13 13 12 12 11 10 11 10 10 9 11 10 9 9 6 8 8 8 8 8 7 4 4 3 2 1 0 -0 -0 -0 -1 -2 -7 0 1 -1 -1 -2 -1 -1 -1
10 12 12 13 13 12 12 11 10 10 10 8 9 10 8 7 6 8 8 8 8 8 8 5 4 3 1 1 0 -1 1 0 1 -1 -2 -6 -5 -5 -6 -5 -5 -1 0
11 10 12 12 14 13 12 11 9 8 8 8 9 9 9 6 2 7 8 8 8 8 8 7 6 3 1 1 -0 -3 1 -1 -1 0 -0 -0 -2 -4 -8 -7 -2 -2 -2
11 10 10 11 12 13 13 12 10 9 9 9 7 10 9 8 5 5 7 8 9 8 8 8 8 6 3 2 1 -2 3 4 2 2 0 1 0 -3 -4 -10 -9 -5 -7
9 9 10 10 12 13 13 12 11 11 7 7 9 10 9 8 7 4 4 6 9 9 8 9 9 8 6 5 4 0 3 3 3 2 2 1 1 0 -2 -5 -8 -11 -15
4 8 8 9 11 11 13 13 12 11 10 8 9 9 9 9 8 6 7 6 8 8 8 8 9 9 7 6 6 4 1 2 3 3 3 3 3 2 2 1 -5 -8 -11

GFSSE_850_dewp_366.txt.gz
Dewpoint
12 11 10 9 7 3 -2 -3 -2 2 6 0 -3 -3 -2 5 12 12 11 10 9 7 7 6 5 5 3 0 -4 7 10 10 5 9 9 9 9 10 9 8 7 8 8
10 11 11 10 9 5 -1 -3 -3 0 6 0 -6 -7 -3 7 13 12 9 6 6 5 5 5 4 2 1 0 -1 3 9 10 10 9 10 9 9 9 9 8 8 8 6
11 11 11 10 10 7 1 -2 -2 1 7 -1 -5 1 3 10 12 9 6 5 4 4 4 3 7 9 9 8 2 1 4 7 8 8 9 10 7 9 9 8 8 6 7
10 10 11 11 11 9 3 -0 -2 5 5 -3 1 10 9 10 8 8 5 2 2 1 1 6 10 10 9 9 5 -0 -4 -0 3 6 9 9 9 9 8 6 7 8 7
10 10 11 11 11 10 4 2 -0 6 3 -0 8 11 11 9 9 6 1 3 4 1 0 3 5 9 8 8 6 3 -9 -7 -7 3 1 3 1 6 7 8 7 6 5
10 10 11 11 11 10 5 2 1 5 4 0 8 10 11 10 9 2 2 5 4 0 1 3 5 7 7 7 7 5 -11 -8 0 3 7 7 9 8 8 8 4 5 7
10 10 11 12 11 11 6 2 2 5 4 2 6 9 10 8 6 1 3 6 3 -1 2 5 6 6 6 6 6 0 -11 -7 -5 1 6 8 8 6 8 7 7 5 7
9 9 10 11 12 11 6 2 2 5 4 3 5 6 5 6 4 1 5 6 2 -2 1 4 6 6 6 3 3 -7 -6 -3 -4 3 2 8 6 7 5 5 6 4 5
9 7 11 12 12 11 6 2 2 4 3 4 6 3 3 5 1 2 6 6 1 -4 1 6 7 7 7 6 6 -0 -1 3 1 3 6 7 7 7 5 6 6 6 7
8 8 9 12 12 11 6 3 3 3 3 4 4 4 3 6 2 3 6 5 -2 -4 3 6 7 7 7 7 6 0 -2 2 2 5 6 7 7 6 7 6 7 5 6
9 8 12 11 11 10 6 4 5 4 5 6 5 4 3 6 2 3 6 4 -5 -1 5 6 7 6 6 6 4 -1 -1 2 3 6 5 7 5 7 6 6 5 5 5
9 11 9 11 10 8 7 8 6 7 8 7 7 5 3 4 3 3 5 -3 -6 2 6 7 7 6 6 5 5 3 -2 1 4 6 5 6 5 6 6 5 5 5 4
8 8 12 9 8 6 6 6 9 10 9 9 7 5 4 4 4 3 3 -6 1 4 5 6 6 6 6 4 4 4 -2 -2 3 4 5 5 5 5 6 4 5 4 5
8 7 6 6 6 4 3 5 7 9 9 8 7 5 8 4 3 4 -2 -7 2 6 6 6 6 6 6 6 6 5 3 -5 0 3 6 6 6 4 5 6 4 5 3
9 7 6 5 5 3 2 3 5 6 8 7 7 8 9 8 3 4 -5 -3 4 6 6 6 7 6 7 7 6 4 1 -5 -2 1 2 4 6 6 4 5 5 4 4
10 8 7 6 5 3 1 2 3 7 8 7 8 10 10 9 7 4 0 3 5 5 6 6 6 7 7 6 5 4 -1 -4 -4 -3 -5 3 4 4 5 4 5 4 5
12 10 8 7 6 4 2 3 5 8 8 7 7 10 11 10 9 4 2 3 5 5 5 5 6 6 6 6 5 4 2 -2 -4 -6 -8 -9 -8 -11 -1 3 2 5 4
13 12 11 11 10 8 4 5 7 8 8 7 7 10 11 10 8 6 6 6 5 5 6 5 5 6 6 5 4 4 4 2 2 0 -1 -3 -5 -6 -15 -15 -9 -2 1
13 13 13 12 12 10 6 6 7 8 8 9 9 9 10 10 9 8 4 7 7 6 6 3 2 5 5 5 5 4 4 3 2 2 0 -1 -2 -2 -5 -14 -18 -16 -3
13 13 13 12 12 12 10 10 10 10 10 9 9 9 10 10 10 9 5 6 7 6 6 4 2 4 1 3 4 5 4 3 3 2 1 -1 -2 -4 -4 -9 -6 -8 -12
13 12 13 13 13 12 11 12 11 11 11 10 9 9 9 9 9 9 8 6 7 7 7 5 4 3 4 1 -2 0 -0 1 3 3 1 1 -1 -4 -5 -5 -5 -4 -4
12 12 13 13 13 13 11 11 11 11 11 11 10 10 10 10 9 8 6 4 7 7 8 7 4 4 4 1 -1 -2 -1 -2 -1 -0 -1 -5 -7 -4 -8 -10 -9 -6 -5
11 11 12 11 12 13 12 11 12 12 11 11 10 10 9 10 10 8 7 6 6 7 7 8 4 4 3 1 -1 -3 -1 -2 -1 -1 -3 -3 -4 -6 -6 -11 -13 -13 -9
10 9 11 11 11 12 12 11 11 11 11 10 10 9 10 10 9 8 8 8 7 7 7 7 7 4 4 1 0 -1 -2 -1 -1 -0 -1 -0 -2 -3 -4 -6 -10 -14 -14
8 9 10 10 11 11 13 12 11 11 11 11 10 9 10 9 9 8 8 9 8 8 7 6 8 7 6 3 2 2 -1 3 4 4 2 0 -1 -1 -1 -2 -4 -7 -11
10 10 10 9 10 10 11 12 12 12 10 8 9 9 9 10 10 9 9 9 9 9 8 8 7 8 8 7 4 4 2 1 2 2 2 2 0 0 1 2 2 1 -6